Regional Weather Roundup
Issued by NWS

Home | Current Version | Previous Version | Graphics & Text | Print | Product List | Glossary On
Versions: 1 2 3 4 5 6 7 8 9 10 11 12 13 14 15 16 17 18 19 20 21 22 23 24 25 26 27 28 29 30 31 32 33 34 35 36 37 38 39 40 41 42 43 44 45 46 47 48 49 50
000
ASUS45 KSLC 012110
RWRUT

UTAH REGIONAL WEATHER ROUNDUP
NATIONAL WEATHER SERVICE SALT LAKE CITY UT
300 PM MDT WED JUL 01 2015

UTZ001>011-023>025-012200-

NORTHERN UTAH

CITY           SKY/WX    TMP DP  RH WIND       PRES   REMARKS
BRIGHAM CITY   SUNNY     95  39  14 W9        30.05F HX  91
HILL AFB       SUNNY     93  45  18 NW8       30.11F
LOGAN          SUNNY     95  45  17 NE5       30.06F HX  91
OGDEN          SUNNY     95  44  17 W10       30.07F HX  91
PROVO AIRPORT  SUNNY     93  54  26 NW8       30.07F HX  91
SALT LAKE CITY MOSUNNY   96  47  18 NW3       30.04F HX  92
VERNAL         MOSUNNY   84  52  33 N12       30.15S
WENDOVER       SUNNY     97  48  19 SE14      30.06F HX  93
HEBER CITY     SUNNY     93  36  13 N12G18    30.14F
WEST JORDAN    SUNNY     93  50  22 N12G20    30.09F HX  90

$$

UTZ012>022-026-027-012200-

SOUTHERN/CENTRAL UTAH

CITY           SKY/WX    TMP DP  RH WIND       PRES   REMARKS
BLANDING       MOSUNNY   92  43  18 CALM      30.18F
BRYCE CANYON   MOSUNNY   89  43  20 MISG      30.29F
CEDAR CITY     MOSUNNY   93  42  17 NE3       30.10F
DELTA          PTSUNNY   96  45  17 NE7       30.06F HX  92
HANKSVILLE     PTSUNNY   99  41  13 SE3       30.01F HX  94
MILFORD        MOSUNNY  100  45  15 N14G28    30.07F HX  96
MOAB/CYNLANDS  SUNNY     98  44  15 VRB7      29.98F HX  94
PRICE          PTSUNNY   90  49  24 E15       30.12F
ST GEORGE      CLEAR    102  54  19 W12       29.89F HX 100
KANAB          SUNNY     99  46  16 NW6       30.08F HX  95

$$

REGIONAL REPORTS     COLORADO/ARIZONA

CITY           SKY/WX    TMP DP  RH WIND       PRES   REMARKS
CRAIG, CO      MOSUNNY   85  48  27 SW5       30.21F
GRAND JUNCTION PTSUNNY   94  47  20 S8        30.03F HX  90
RIFLE          PTSUNNY   91  46  21 VRB3      30.11F
MONTROSE       MOSUNNY   93  41  16 N9        30.12F
CORTEZ         SUNNY     94  45  18 W10       30.11F HX  90
PAGE, AZ       SUNNY    103  42  12 VRB6      29.96F HX  98
GRAND CANYON   SUNNY     90  45  21 N5        30.20F
KINGMAN        PTSUNNY   90  54  29 SW22G29   30.04F
FLAGSTAFF      MOSUNNY   82  57  42 SW17      30.24F

$$

REGIONAL REPORTS    NEVADA/IDAHO/WYOMING

CITY           SKY/WX    TMP DP  RH WIND       PRES   REMARKS
LAS VEGAS, NV  MOSUNNY  105  53  17 VRB6      29.83F HX 103
ELY            MOSUNNY   94  39  14 MISG      30.19F HX  90
ELKO           PTSUNNY   98  42  14 E5        30.11F HX  94
POCATELLO, ID  SUNNY     93  48  21 NW6       30.09F
BURLEY         MOSUNNY   92  47  21 W8        30.05F
EVANSTON, WY   MOSUNNY   86  33  15 NW15G21   30.27F
ROCK SPRINGS   MOSUNNY   85  47  26 CALM      30.20F
KEMMERER       MOSUNNY  N/A N/A N/A W17       30.28F

$$


USA.gov is the U.S. government's official web portal to all federal, state and local government web resources and services.